This is the latest recevied weather packets stored in our database for station/object WA6OOO. If no packets are shown the sender has not sent any weather packets the latest 10 day(s).
| Time | Temp. | Humidity | Pressure | Rain* | Wind** | Luminosity | Snow |
|---|---|---|---|---|---|---|---|
| 1788406897 | 18.89° C | 88% | 1017.8 hPa | 0 mm | - | 0 W/m² | - |
| 1788406592 | 18.89° C | 88% | 1017.8 hPa | 0 mm | - | 0 W/m² | - |
| 1788406292 | 18.89° C | 88% | 1017.8 hPa | 0 mm | - | 0 W/m² | - |
| 1788405987 | 18.89° C | 87% | 1017.5 hPa | 0 mm | - | 0 W/m² | - |
| 1788405683 | 18.89° C | 87% | 1017.6 hPa | 0 mm | - | 0 W/m² | - |
| 1788405378 | 18.89° C | 87% | 1017.6 hPa | 0 mm | - | 0 W/m² | - |
| 1788405073 | 18.89° C | 87% | 1017.4 hPa | 0 mm | - | 0 W/m² | - |
| 1788404769 | 18.89° C | 87% | 1017.5 hPa | 0 mm | - | 0 W/m² | - |
| 1788404464 | 19.44° C | 86% | 1017.5 hPa | 0 mm | - | 0 W/m² | - |
| 1788404159 | 19.44° C | 86% | 1017.4 hPa | 0 mm | - | 0 W/m² | - |
| 1788403855 | 19.44° C | 86% | 1017.2 hPa | 0 mm | - | 0 W/m² | - |
| 1788403555 | 19.44° C | 86% | 1017.3 hPa | 0 mm | - | 0 W/m² | - |
| 1788403249 | 19.44° C | 86% | 1017.4 hPa | 0 mm | - | 0 W/m² | - |
| 1788402944 | 19.44° C | 85% | 1017.3 hPa | 0 mm | - | 0 W/m² | - |
| 1788402640 | 19.44° C | 85% | 1017.4 hPa | 0 mm | - | 1 W/m² | - |
| 1788402339 | 19.44° C | 85% | 1017.3 hPa | 0 mm | - | 2 W/m² | - |
| 1788402038 | 20° C | 84% | 1017.5 hPa | 0 mm | - | 4 W/m² | - |
| 1788401733 | 20° C | 83% | 1017.2 hPa | 0 mm | - | 6 W/m² | - |
| 1788401428 | 20° C | 83% | 1017.5 hPa | 0 mm | - | 9 W/m² | - |
| 1788401124 | 20° C | 82% | 1017.2 hPa | 0 mm | - | 12 W/m² | - |
| 1788400823 | 20.56° C | 82% | 1017.3 hPa | 0 mm | - | 16 W/m² | - |
| 1788400519 | 20.56° C | 80% | 1017.3 hPa | 0 mm | - | 19 W/m² | - |
| 1788400214 | 20.56° C | 80% | 1017.3 hPa | 0 mm | - | 22 W/m² | - |
| 1788399908 | 21.11° C | 79% | 1017.4 hPa | 0 mm | - | 26 W/m² | - |
| 1788399603 | 21.11° C | 77% | 1017.3 hPa | 0 mm | - | 36 W/m² | - |
* Rain latest hour (hover to see other rain measurements)
** Current wind speed in m/s (hover to see current wind gust speed)